Pottstown, PA

5:18 PM EST on November 19, 2017 (GMT -0500)
Pottstown Limerick

Weather History for KPTW - October, 2012

Change the Weather History Date:

Thursday, October 4, 2012

  Actual Average (KRDG) Record (KRDG)
Temperature  
Mean Temperature 67 °F -  
Max Temperature 75 °F 66 °F 87 °F (1941)
Min Temperature 57 °F 45 °F 26 °F (1974)
Cooling Degree Days 2    
Growing Degree Days 17 (Base 50)    
Moisture  
Dew Point 64 °F    
Average Humidity 94    
Maximum Humidity 100    
Minimum Humidity 73    
Precipitation  
Precipitation 0.01 in - - ()
Sea Level Pressure  
Sea Level Pressure 30.12 in    
Wind  
Wind Speed 0 mph (West)    
Max Wind Speed 8 mph    
Max Gust Speed -    
Visibility 3 miles    
Events Fog , Rain    
Averages and records for this station are not official NWS values.
T = Trace of Precipitation, MM = Missing Value Source: NWS Daily Summary

Daily Weather History Graph

Daily Weather History Graph

Search for Another Location

Airport or City:

Trip Planner

Search our weather history database for the weather conditions in past years. The results will help you decide how hot, cold, wet, or windy it might be!

Date:

Astronomy

Oct. 04, 2012 Rise Set
Actual Time 7:02 AM EDT 6:38 PM EDT
Civil Twilight 6:34 AM EDT 7:05 PM EDT
Nautical Twilight 6:03 AM EDT 7:37 PM EDT
Astronomical Twilight 5:31 AM EDT 8:08 PM EDT
Moon 9:12 PM EDT (10/4) 11:17 AM EDT (10/4)
Length of Visible Light 12h 31m
Length of Day
11h 36m
Waning Gibbous, 82% of the Moon is Illuminated
Oct 4
Waning Gibbous
Oct 8
Last Quarter
Oct 15
New
Oct 21
First Quarter
Oct 29
Full

Hourly Weather History & Observations

Time (EDT) Temp. Dew Point Humidity Pressure Visibility Wind Dir Wind Speed Gust Speed Precip Events Conditions
12:11 AM 64.4 °F 64.4 °F 100% 30.14 in 1.2 mi Calm Calm - N/A   Partly Cloudy
12:29 AM 64.4 °F 64.4 °F 100% 30.14 in 2.0 mi Calm Calm - N/A   Clear
12:38 AM 64.4 °F 64.4 °F 100% 30.14 in 1.8 mi Calm Calm - N/A   Partly Cloudy
12:54 AM 64.9 °F 64.0 °F 97% 30.13 in 1.5 mi Calm Calm - N/A   Mostly Cloudy
1:21 AM 66.2 °F 64.4 °F 94% 30.15 in 2.0 mi Calm Calm - N/A   Scattered Clouds
1:49 AM 64.4 °F 64.4 °F 100% 30.15 in 1.2 mi Calm Calm - N/A   Clear
1:54 AM 64.9 °F 64.9 °F 100% 30.14 in 1.0 mi Calm Calm - N/A   Clear
2:36 AM 64.4 °F 64.4 °F 100% 30.14 in 2.0 mi Calm Calm - N/A   Scattered Clouds
2:50 AM 64.4 °F 64.4 °F 100% 30.14 in 1.5 mi Calm Calm - N/A   Scattered Clouds
2:54 AM 64.9 °F 64.9 °F 100% 30.14 in 1.5 mi Calm Calm - N/A   Mostly Cloudy
3:09 AM 66.2 °F 64.4 °F 94% 30.14 in 2.5 mi Calm Calm - N/A   Mostly Cloudy
3:19 AM 64.4 °F 64.4 °F 100% 30.13 in 1.5 mi Calm Calm - N/A   Scattered Clouds
3:39 AM 66.2 °F 64.4 °F 94% 30.13 in 2.0 mi Calm Calm - 0.00 in   Scattered Clouds
3:54 AM 66.0 °F 64.9 °F 96% 30.12 in 1.8 mi Calm Calm - 0.00 in   Mostly Cloudy
4:30 AM 66.2 °F 64.4 °F 94% 30.13 in 2.0 mi Calm Calm - N/A   Scattered Clouds
4:54 AM 66.0 °F 64.9 °F 96% 30.13 in 2.0 mi Calm Calm - N/A   Mostly Cloudy
5:54 AM 66.0 °F 64.9 °F 96% 30.13 in 2.0 mi Calm Calm - N/A   Overcast
6:54 AM 66.0 °F 64.9 °F 96% 30.13 in 2.5 mi Calm Calm - N/A   Overcast
7:13 AM 66.2 °F 64.4 °F 94% 30.14 in 1.5 mi Calm Calm - N/A   Overcast
7:31 AM 66.2 °F 64.4 °F 94% 30.15 in 2.0 mi Calm Calm - 0.00 in Rain Light Rain
7:54 AM 66.0 °F 64.9 °F 96% 30.14 in 1.5 mi Calm Calm - 0.00 in   Overcast
8:32 AM 66.2 °F 66.2 °F 100% 30.16 in 2.0 mi Calm Calm - N/A   Mostly Cloudy
8:54 AM 66.9 °F 66.0 °F 97% 30.14 in 2.0 mi Calm Calm - 0.00 in Rain Light Rain
9:54 AM 68.0 °F 66.9 °F 96% 30.15 in 2.5 mi Calm Calm - 0.01 in Rain Light Rain
10:54 AM 69.1 °F 68.0 °F 96% 30.14 in 2.5 mi Calm Calm - 0.00 in   Mostly Cloudy
11:22 AM 71.6 °F 68.0 °F 88% 30.14 in 3.0 mi Calm Calm - N/A   Scattered Clouds
11:54 AM 73.0 °F 69.1 °F 87% 30.12 in 4.0 mi Calm Calm - 0.00 in   Scattered Clouds
12:54 PM 73.9 °F 69.1 °F 85% 30.11 in 7.0 mi Calm Calm - N/A   Mostly Cloudy
1:44 PM 75.2 °F 69.8 °F 83% 30.09 in 5.0 mi South 4.6 mph - N/A   Haze
1:54 PM 75.0 °F 69.1 °F 82% 30.09 in 6.0 mi SW 4.6 mph - N/A   Haze
2:08 PM 75.2 °F 69.8 °F 83% 30.09 in 6.0 mi Variable 3.5 mph - N/A   Haze
2:47 PM 75.2 °F 69.8 °F 83% 30.08 in 6.0 mi Calm Calm - N/A   Haze
2:54 PM 75.9 °F 70.0 °F 82% 30.07 in 6.0 mi Calm Calm - N/A   Haze
3:54 PM 75.0 °F 69.1 °F 82% 30.07 in 5.0 mi West 4.6 mph - N/A   Haze
4:54 PM 75.0 °F 66.9 °F 76% 30.07 in 7.0 mi WNW 8.1 mph - N/A   Clear
5:54 PM 73.0 °F 64.0 °F 73% 30.07 in 10.0 mi NW 5.8 mph - N/A   Clear
6:54 PM 70.0 °F 63.0 °F 78% 30.08 in 10.0 mi NW 3.5 mph - N/A   Clear
7:54 PM 64.9 °F 63.0 °F 93% 30.08 in 9.0 mi Calm Calm - N/A   Clear
8:54 PM 62.1 °F 61.0 °F 96% 30.09 in 6.0 mi Calm Calm - N/A   Clear
9:46 PM 60.8 °F 60.8 °F 100% 30.10 in 2.5 mi Calm Calm - N/A   Clear
9:54 PM 60.1 °F 60.1 °F 100% 30.09 in 2.5 mi Calm Calm - N/A   Clear
10:03 PM 60.8 °F 60.8 °F 100% 30.10 in 0.8 mi Calm Calm - N/A   Clear
10:13 PM 60.8 °F 60.8 °F 100% 30.10 in 0.2 mi Calm Calm - N/A Fog Fog
10:20 PM 60.8 °F 60.8 °F 100% 30.11 in 0.5 mi Calm Calm - N/A Fog Fog
10:29 PM 60.8 °F 60.8 °F 100% 30.11 in 0.5 mi Calm Calm - N/A Fog Fog
10:35 PM 60.8 °F 59.0 °F 94% 30.11 in 2.0 mi Calm Calm - N/A   Clear
10:54 PM 59.0 °F 57.9 °F 96% 30.10 in 0.8 mi Calm Calm - N/A   Clear
11:03 PM 60.8 °F 59.0 °F 94% 30.11 in 2.0 mi Calm Calm - N/A   Clear
11:10 PM 59.0 °F 57.2 °F 94% 30.11 in 6.0 mi Calm Calm - N/A   Clear
11:37 PM 59.0 °F 59.0 °F 100% 30.10 in 0.8 mi Calm Calm - N/A   Clear
11:49 PM 60.8 °F 59.0 °F 94% 30.10 in 2.0 mi Calm Calm - N/A   Clear
11:54 PM 57.9 °F 57.9 °F 100% 30.09 in 1.8 mi Calm Calm - N/A   Clear